User: anonymous   Login
Location: Unspecified
(0.0000°N, 0.0000°E)
Time: 09:26:52
(UTC+00:00)
Language:

AAUSAT 4 - Orbit

View from above orbital plane
View from above orbital plane
View from above satellite
View from above satellite

Ground track
Ground track

The orbit data is extracted from the following two-line orbital elements,

1 41460U 16025E   17327.76725391  .00002827  00000-0  15080-3 0  9995
2 41460  98.1578  14.5480 0166356 113.7965 248.0802 15.04908413 86582
Epoch (UTC): 23 November 2017 18:24:50
Eccentricity: 0.0166356
inclination: 98.1578°
perigee height: 436 km
apogee height: 667 km
right ascension of ascending node: 14.5480°
argument of perigee: 113.7965°
revolutions per day: 15.04908413
mean anomaly at epoch: 248.0802°
orbit number at epoch: 8658

The dashed part of the orbit path shows where the satellite is in the earth's shadow,  

DLR